📊 Raw Sensor Data
Showing records 48276 to 48300 of 85,098 total
| ID | Distance (ft) | Battery V | Battery A | Int Temp (°F) | Int Humid (%) | Ext Temp (°F) | Solar V | RSSI | SNR | Time Stamp |
|---|---|---|---|---|---|---|---|---|---|---|
| 36835 | 15.0 | 3.72 | -5 | 38 | 40 | 40 | 0.00 | -79 | 8 | 04/04/2025 04:45 AM |
| 36834 | 15.0 | 3.73 | -5 | 38 | 40 | 40 | 0.00 | -79 | 8 | 04/04/2025 04:30 AM |
| 36833 | 15.0 | 3.74 | -5 | 39 | 40 | 43 | 0.00 | -78 | 8 | 04/04/2025 04:15 AM |
| 36832 | 15.0 | 3.73 | -5 | 39 | 41 | 41 | 0.00 | -78 | 9 | 04/04/2025 04:00 AM |
| 36831 | 15.0 | 3.89 | -5 | 41 | 40 | 40 | 0.10 | -78 | 7 | 04/04/2025 03:45 AM |
| 36830 | 15.0 | 3.89 | -5 | 41 | 40 | 43 | 0.00 | -78 | 8 | 04/04/2025 03:30 AM |
| 36829 | 15.0 | 3.89 | -5 | 41 | 40 | 43 | 0.00 | -78 | 8 | 04/04/2025 03:15 AM |
| 36828 | 15.0 | 3.90 | -5 | 41 | 40 | 43 | 0.00 | -79 | 8 | 04/04/2025 03:00 AM |
| 36827 | 15.0 | 3.90 | -5 | 40 | 41 | 44 | 0.00 | -79 | 9 | 04/04/2025 02:45 AM |
| 36826 | -- | 3.90 | -5 | 39 | 42 | 41 | 0.00 | -79 | 8 | 04/04/2025 02:30 AM |
| 36825 | 15.0 | 3.90 | -5 | 39 | 42 | 39 | 0.00 | -78 | 8 | 04/04/2025 02:15 AM |
| 36824 | 15.0 | 3.90 | -5 | 41 | 42 | 40 | 0.00 | -77 | 8 | 04/04/2025 02:00 AM |
| 36823 | 15.0 | 3.78 | -5 | 43 | 41 | 41 | 0.00 | -77 | 8 | 04/04/2025 01:45 AM |
| 36822 | 15.0 | 3.76 | -5 | 45 | 40 | 47 | 0.00 | -78 | 7 | 04/04/2025 01:30 AM |
| 36821 | 15.0 | 3.78 | -5 | 46 | 40 | 48 | 0.00 | -78 | 8 | 04/04/2025 01:15 AM |
| 36820 | 15.0 | 3.90 | -5 | 46 | 40 | 48 | 0.00 | -78 | 9 | 04/04/2025 01:00 AM |
| 36819 | 15.0 | 3.78 | -5 | 46 | 40 | 48 | 0.00 | -78 | 7 | 04/04/2025 12:45 AM |
| 36818 | 15.0 | 3.84 | -5 | 46 | 40 | 48 | 0.00 | -79 | 8 | 04/04/2025 12:30 AM |
| 36817 | 15.0 | 3.86 | -30 | 46 | 40 | 48 | 0.00 | -79 | 7 | 04/04/2025 12:15 AM |
| 36816 | 15.0 | 3.84 | -5 | 46 | 41 | 48 | 0.00 | -78 | 8 | 04/03/2025 11:45 PM |
| 36815 | 15.0 | 3.92 | -5 | 46 | 41 | 48 | 0.00 | -78 | 8 | 04/03/2025 11:30 PM |
| 36814 | -- | 3.84 | -5 | 47 | 41 | 49 | 0.00 | -79 | 8 | 04/03/2025 11:15 PM |
| 36813 | -- | 3.85 | -5 | 47 | 41 | 50 | 0.00 | -78 | 8 | 04/03/2025 11:00 PM |
| 36812 | -- | 3.85 | -5 | 48 | 41 | 50 | 0.00 | -78 | 8 | 04/03/2025 10:45 PM |
| 36811 | -- | 3.85 | -5 | 48 | 41 | 51 | 0.10 | -78 | 7 | 04/03/2025 10:30 PM |